Location: Peterborough
(44.3091°N, 78.3197°W)
Time: 00:50:42
(UTC-04:00)

SR - Pass Details

Date: 22 March 2023
Orbit: 581 x 867 km, 66.7° (Epoch: 02 June)

Event Time Altitude Azimuth Distance (km) Brightness Sun altitude
Rises 04:50:50 0° 228° (SW) 3,012 - -25.3°
Reaches altitude 10° 04:53:18 10° 235° (SW) 2,056 - -24.9°
Maximum altitude 04:57:42 43° 307° (NW) 876 - -24.2°
Exits shadow 04:58:22 40° 332° (NNW) 915 ? -24.1°
Drops below altitude 10° 05:01:52 10° 20° (NNE) 1,946 ? -23.5°
Sets 05:04:09 0° 27° (NNE) 2,830 ? -23.2°
